Flag for Germany Weather past 2 weeks in Bayreuth, Bavaria, Germany

Now
45 °F

Overcast.


Feels Like: 41 °F
Forecast: 36 / 66 °F
Wind: 6 mph from Northwest

Location: Grafenwoehr

Current Time: May 27, 2015 at 7:04:37 AM

Latest Report: May 27, 2015 at 5:58 AM


Visibility: N/A

Pressure: 30.18 "Hg

Humidity: 81%

Dew point: 39 °F

Location of BayreuthLocation

Historic Weather in Bayreuth — Graph

°F

Bayreuth temperature yesterday

Maximum temperature yesterday: 57 °F (at 10:58 AM)
Minimum temperature yesterday: 46 °F (at 7:00 AM)
Average temperature yesterday: 52 °F

Past Weeks' High & Low Weather Summary

 TemperatureHumidityPressure
High79 °F (May 12, 3:58 PM)100% (May 13, 3:58 AM)30.33 "Hg (May 13, 3:58 AM)
Low34 °F (May 22, 5:58 AM)28% (May 22, 2:58 PM)29.70 "Hg (May 19, 2:58 AM)
Average55 °F67%30.03 "Hg
* Reported May 12 5:58 AM — May 27 5:58 AM, Bayreuth, Weather by CustomWeather, © 2015

Note: Actual official high and low records may vary slightly from our data, if they occured in-between our weather recording intervals... More about our weather records

Advertising

Bayreuth weather history for previous 24 hours

 ConditionsComfort  
Time TempWeatherWind HumidityBarometerVisibility
5:58 AM
Wed, May 27
45 °FOvercast.6 mph81%30.18 "HgN/A
4:58 AM46 °FOvercast.6 mph80%30.15 "HgN/A
3:58 AM46 °FOvercast.6 mph79%30.14 "HgN/A
2:58 AM46 °FOvercast.7 mph82%30.14 "HgN/A
1:58 AM46 °FOvercast.2 mph82%30.13 "HgN/A
12:58 AM46 °FOvercast.No wind82%30.14 "HgN/A
11:58 PM
Tue, May 26
46 °FOvercast.3 mph82%30.13 "HgN/A
10:58 PM48 °FOvercast.3 mph76%30.13 "HgN/A
9:58 PM50 °FOvercast.3 mph66%30.12 "HgN/A
8:58 PM51 °FOvercast.3 mph62%30.10 "HgN/A
7:58 PM54 °FMostly cloudy.6 mph58%30.08 "HgN/A
6:58 PM54 °FMostly cloudy.10 mph56%30.07 "HgN/A
5:58 PM55 °FMore clouds than sun.8 mph56%30.05 "HgN/A
4:58 PM55 °FOvercast.9 mph55%30.04 "HgN/A
3:58 PM55 °FOvercast.9 mph61%30.03 "HgN/A
2:58 PM55 °FMore clouds than sun.7 mph59%30.03 "HgN/A
1:58 PM55 °FOvercast.9 mph52%30.02 "HgN/A
12:58 PM57 °FOvercast.8 mph51%30.01 "HgN/A
11:58 AM56 °FBroken clouds.6 mph54%30.00 "HgN/A
10:58 AM57 °FPartly sunny.10 mph55%29.98 "HgN/A
9:58 AM54 °FPassing clouds.8 mph69%29.98 "HgN/A
8:58 AM52 °FSunny.6 mph81%29.97 "HgN/A
7:58 AM48 °FPartly sunny.3 mph90%29.97 "HgN/A
7:00 AM46 °FMostly cloudy.No wind93%29.94 "HgN/A
Weather by CustomWeather, © 2015

See weather overviewHow to use our weather pages